Regional Weather Roundup
Issued by NWS Charleston, WV

Home | Current Version | Previous Version | Text Only | Print | Product List | Glossary Off
Versions: 1 2 3 4 5 6 7 8 9 10 11 12 13 14 15 16 17 18 19 20 21 22 23 24 25 26 27 28 29 30 31 32 33 34 35 36 37 38 39 40 41 42 43 44 45 46 47 48 49 50

000
ASUS41 KRLX 051910
RWRRLX
West Virginia Regional Weather Roundup
National Weather Service Charleston WV
300 PM EDT TUE MAY 05 2015

Note: "fair" indicates few or no clouds below 12,000 feet with no
significant weather and/or obstructions to visibility.

WVZ003-052000-
Northern Panhandle of West Virginia

CITY           SKY/WX    TMP DP  RH WIND       PRES   REMARKS
WHEELING       MOSUNNY   75  59  57 NW7       30.26F
$$

WVZ009-052000-
Northwest West Virginia

CITY           SKY/WX    TMP DP  RH WIND       PRES   REMARKS
PARKERSBURG    PTSUNNY   79  56  45 VRB3      30.27F
$$

WVZ006-052000-
Western West Virginia

CITY           SKY/WX    TMP DP  RH WIND       PRES   REMARKS
HUNTINGTON     PTSUNNY   83  55  38 S3        30.24F
$$

WVZ015-052000-
West Central West Virginia

CITY           SKY/WX    TMP DP  RH WIND       PRES   REMARKS
CHARLESTON     MOSUNNY   84  52  33 VRB5      30.24F
$$

WVZ022-031-052000-
North Central West Virginia

CITY           SKY/WX    TMP DP  RH WIND       PRES   REMARKS
CLARKSBURG     MOSUNNY   80  56  43 W6        30.25F
MORGANTOWN     PTSUNNY   77  55  46 NE3       30.26F
$$

WVZ025-035-042-045-052000-
Southern West Virginia

CITY           SKY/WX    TMP DP  RH WIND       PRES   REMARKS
BECKLEY        CLOUDY    74  48  39 W7        30.32F
LOGAN            N/A     79  52  38 CALM      30.25F
BLUEFIELD      MOSUNNY   76  46  34 SW7       30.34F
LEWISBURG      CLOUDY    78  48  34 CALM      30.30F
$$

WVZ047-052000-
Northern Mountains of West Virginia

CITY           SKY/WX    TMP DP  RH WIND       PRES   REMARKS
ELKINS         MOSUNNY   77  51  40 W6        30.29F
$$

WVZ052-052000-
Eastern Panhandle of West Virginia

CITY           SKY/WX    TMP DP  RH WIND       PRES   REMARKS
MARTINSBURG    PTSUNNY   79  57  46 E5        30.23F
PETERSBURG     PTSUNNY   73  59  59 SE5       30.25F
$$



USA.gov is the U.S. government's official web portal to all federal, state and local government web resources and services.